Location: Altavilla Irpina
(41.0000°N, 14.7833°E)
Time: 17:19:20
(UTC+00:00)

Meteor 1-20 Rocket - Pass Details

Date: 19 May 2025
Orbit: 819 x 889 km, 81.2° (Epoch: 17 June)

Event Time Altitude Azimuth Distance (km) Brightness Sun altitude
Rises 19:27:10 0° 349° (NNW) 3,475 8.3 -12.0°
Reaches altitude 10° 19:29:37 10° 348° (NNW) 2,541 7.5 -12.3°
Maximum altitude 19:35:24 80° 263° (W) 904 4.4 -13.1°
Drops below altitude 10° 19:41:13 10° 177° (S) 2,546 6.3 -13.9°
Enters shadow 19:41:28 - 177° (S) 2,641 6.4 -14.0°
